Vertical_Velocity
0 4 1 3 -0 -7 -4 -5 2 -7 -2 4 6 3 4 4 4 1 -4 2 1 -1 -3 0 1 3 1 3 0 1 -3 -2 -4 -5 -3 -2 -1 -2 -2 -1 -1 2 -2 -3 -1 -3 -3 -1 -2
1 3 1 4 -0 -4 -6 1 -7 -0 -3 3 2 1 4 -6 -6 5 3 -1 1 -1 -2 -1 -1 1 4 4 -1 1 1 -2 -2 -3 -5 -3 -1 -2 -0 -1 -0 1 -3 -5 -3 -1 0 -1 -0
-1 7 3 2 -1 -14 2 -3 1 1 0 0 1 1 1 -2 -4 3 4 -2 -2 -1 -0 -3 -0 2 2 4 1 -1 -0 1 -1 -1 -3 -5 -2 1 -1 -2 -4 -1 -2 -2 3 -5 -0 -2 -5
-3 1 4 -1 2 -0 -0 1 -1 2 2 7 -2 1 1 -0 0 1 6 1 -6 -1 2 -1 -4 -1 1 1 3 -1 -0 -1 1 -1 -2 -5 -4 -1 -0 -0 -2 -3 1 3 -4 0 0 2 1
2 7 2 -1 -2 -5 -5 -3 -4 1 -0 -1 3 -1 6 2 -0 4 1 5 -2 -3 -1 1 0 -3 -1 1 4 -1 -1 -2 -0 0 -5 -3 -5 -3 -0 -3 -1 1 -2 -2 -1 -1 1 -2 -3
2 -0 -1 -0 -1 -4 -1 -4 -3 1 -1 -0 5 -5 5 -0 2 6 9 6 2 -3 -2 -0 5 -0 0 3 1 2 1 -2 -2 0 -0 -5 -3 -5 -2 1 -3 -3 -2 -3 -2 -1 -1 -2 -0
-2 1 -3 -1 -2 -1 -2 -1 6 -6 0 1 1 -1 -0 2 -2 2 -6 18 5 -0 -1 -2 -1 1 -3 3 4 1 1 -0 -0 -3 -0 4 -8 -0 -7 -2 4 -0 -5 -4 -3 -2 -2 -2 -4
-2 2 0 -2 -1 -7 -1 2 0 3 -1 -7 1 -4 -2 0 3 2 0 -1 7 1 1 -1 2 2 -1 -2 -2 3 3 2 -2 1 -3 -1 1 -6 -0 -5 -3 3 2 -2 -3 -4 -1 -1 -1
1 -3 -6 -4 -1 -3 0 -1 0 0 -8 -6 1 2 8 -6 -1 -7 7 2 12 3 2 1 3 7 2 2 1 2 -1 5 -1 -0 0 -4 -2 -2 -4 0 -2 -3 0 1 -2 -4 -0 -2 -0
-4 -5 -3 -2 0 -1 -1 1 -2 -2 -2 -2 -8 -4 -0 4 -0 1 3 11 10 8 3 -4 2 -0 8 0 1 1 -1 -0 4 -4 -1 2 1 -3 -2 -4 -3 1 -2 -2 -1 -1 -4 -2 -2
-3 -5 2 7 1 -1 -10 -1 1 -9 -4 -5 -12 -10 -2 2 3 5 2 4 0 22 17 2 -1 4 5 -0 1 -0 -3 -4 4 -0 -3 1 0 -0 -5 -1 -3 -3 -2 -2 -1 -3 -2 -3 -2
-9 1 -5 -1 -1 -5 -10 -9 -13 -8 9 -8 -1 -7 -11 -4 -4 2 0 -0 4 20 1 18 5 -0 -1 5 -2 2 -2 -2 -4 3 -3 1 -3 3 -1 -5 2 -2 -1 -2 -2 1 1 -0 1
-4 -1 -1 -1 -0 -0 -5 -3 -7 -28 7 -8 -8 -7 2 -4 -8 3 3 3 -7 16 -3 10 10 7 1 -0 2 3 1 -2 2 -0 -3 -2 2 -1 2 0 -6 -3 -2 -1 -3 -1 1 1 1
-3 -5 -2 1 -4 -12 -19 -2 -1 25 9 -10 -12 -15 -20 -7 -3 1 -5 1 1 -12 18 1 1 9 11 2 -4 -0 7 -0 2 -4 2 -2 -1 1 2 2 -1 -5 -1 -3 -3 -1 0 1 2
-3 -16 -2 0 -2 -14 -11 -30 -27 5 9 -7 0 -2 -8 -39 2 -24 8 -2 9 -9 14 -2 11 11 5 7 3 -4 4 2 3 -1 -1 1 -1 -6 4 3 4 3 -3 -2 -0 -4 -5 -1 -2
-6 -2 -10 -7 -5 -5 -4 -76 -10 -7 -1 -13 -9 0 -5 -12 -29 -9 -2 -12 -7 20 4 -42 37 18 6 3 3 2 -5 4 1 3 2 -3 3 -1 -4 1 3 2 2 -2 1 2 -4 -3 -1
-5 -2 -1 -5 1 -4 -5 -40 24 -1 0 -8 -6 -3 -6 -9 -16 -18 -15 -5 -5 -1 -1 5 41 50 0 5 3 5 3 1 2 -1 -1 2 -2 2 -2 -0 -2 3 0 3 -1 0 2 -3 2
-4 -3 -7 -10 -1 7 -5 -43 -7 14 -12 -10 -2 -6 -2 1 -23 -15 -1 -9 -7 -4 7 -1 5 150 8 16 6 2 1 5 5 1 2 -2 -0 2 1 -4 -1 4 -1 0 -1 0 2 -2 -2
0 1 -6 4 17 3 -9 -26 -16 17 -9 -2 -9 1 4 -18 10 -9 -1 0 0 -14 1 -8 9 8 99 35 -7 -6 -9 -2 -0 -3 3 2 -3 7 -0 -0 -6 4 4 -2 4 -2 3 1 2
-2 5 -21 -7 7 -1 18 -53 -11 7 3 9 -10 -4 -7 2 0 -3 -1 2 -7 12 -15 -13 5 51 53 141 -23 4 2 -2 0 1 -2 -1 1 4 -1 3 -4 -1 6 -4 -1 -3 -0 -1 -1
-9 5 -8 -3 8 -6 -4 -49 -30 24 -14 -7 -11 -7 1 -6 -9 -10 11 -5 -5 -34 -7 -1 16 3 -18 86 39 10 16 18 -1 -1 6 -1 -1 -1 1 3 4 -3 -3 1 4 3 -1 -0 -0
-7 25 4 -3 8 5 9 -25 12 -12 -18 4 -7 -1 1 9 3 -2 18 3 -7 -14 -10 -15 -4 -17 -29 -39 21 -5 -10 3 2 -2 -2 -1 0 -3 2 4 3 2 -3 -1 4 1 -1 -2 -2
-24 6 0 0 5 19 1 18 -48 1 -22 -7 -7 2 3 13 -6 -4 10 2 -3 -6 -10 -9 -4 14 34 41 -49 -10 10 22 1 -1 -2 -3 -1 1 4 0 5 1 -2 -2 0 -0 -1 -2 1
4 -5 -8 7 6 7 -8 1 -27 -5 -11 -7 -21 -9 1 -6 -13 13 8 -3 3 19 -13 5 18 18 3 -56 38 0 -12 5 -1 2 -3 -5 -2 -1 5 1 -1 -0 -5 -3 -0 1 -2 -0 -2
5 2 -5 -4 3 -9 9 10 -30 10 4 18 9 8 2 -7 -1 -0 15 -6 15 -23 -4 -53 -8 -13 -35 38 -36 4 -3 8 4 -3 -7 -3 -4 -5 -5 -1 -2 -5 5 -1 -2 -0 1 -0 2
-1 9 2 1 0 -8 -17 -4 7 4 5 10 4 36 -31 8 -2 5 24 -16 -1 -5 -48 -14 33 25 19 165 24 12 -4 -10 4 2 4 -3 1 -1 6 2 3 1 1 -2 -2 -0 1 -2 0
-13 -0 6 9 -1 10 -3 -3 13 -21 -5 3 -5 42 20 1 -3 -12 -3 -11 -22 26 -15 10 -10 -21 28 8 5 -1 -21 -8 -3 2 9 2 6 -5 3 1 5 -0 -1 2 -0 -0 -0 2 1
18 -4 -1 5 2 -2 -3 -1 1 -9 -27 -4 -1 3 -1 -6 -1 16 -7 19 -8 -3 -3 -10 -15 30 0 140 -11 -5 26 -4 -9 16 2 -3 -3 4 -0 -2 -0 1 -2 -1 -0 -2 -3 -0 -2
-6 1 2 7 6 4 1 -6 13 3 -7 -3 1 -8 77 2 7 4 -1 27 0 -20 3 -31 -49 -28 -8 -25 48 38 -17 5 -4 6 -3 2 4 -1 -1 -1 1 -1 -0 -3 -2 -0 -2 -1 -0
7 -2 -3 3 -9 -2 6 -25 7 13 -6 3 -7 -3 10 42 10 -14 -2 6 43 14 -16 16 -28 -0 -10 15 -5 -12 -4 9 -9 9 -4 -3 -1 6 0 2 2 -9 0 -1 -1 0 1 -0 -0
Height
3118 3119 3121 3124 3131 3126 3118 3119 3122 3126 3129 3132 3132 3132 3133 3134 3135 3138 3134 3133 3134 3136 3137 3138 3139 3141 3143 3145 3146 3147 3149 3150 3151 3152 3152 3152 3153 3153 3154 3156 3157 3158 3158 3158 3159 3159 3160 3162 3162
3112 3115 3116 3117 3119 3118 3112 3117 3119 3123 3127 3129 3128 3129 3131 3131 3132 3133 3133 3133 3134 3136 3137 3137 3139 3140 3143 3145 3146 3147 3148 3149 3151 3152 3152 3152 3153 3154 3154 3155 3156 3158 3160 3160 3161 3161 3162 3163 3163
3107 3109 3112 3113 3109 3108 3109 3112 3116 3119 3123 3123 3123 3123 3125 3128 3130 3131 3131 3132 3134 3135 3136 3137 3138 3140 3142 3144 3146 3146 3147 3149 3151 3152 3153 3153 3154 3155 3157 3157 3157 3158 3161 3161 3161 3163 3164 3165 3165
3102 3105 3107 3104 3099 3102 3107 3111 3112 3111 3113 3118 3118 3119 3121 3125 3128 3130 3129 3130 3132 3134 3135 3136 3137 3139 3140 3142 3144 3146 3147 3148 3150 3151 3153 3154 3154 3155 3157 3159 3159 3160 3161 3163 3164 3164 3165 3166 3168
3098 3099 3097 3094 3096 3100 3102 3104 3106 3107 3108 3110 3109 3112 3114 3118 3122 3127 3127 3128 3129 3132 3133 3134 3135 3137 3139 3141 3143 3144 3146 3147 3149 3150 3152 3154 3155 3156 3157 3159 3160 3161 3163 3164 3166 3167 3168 3169 3170
3094 3093 3091 3089 3093 3096 3097 3099 3100 3100 3101 3106 3105 3107 3110 3112 3115 3119 3124 3125 3126 3129 3130 3132 3134 3134 3137 3139 3141 3142 3144 3146 3148 3149 3151 3153 3155 3157 3157 3159 3161 3162 3163 3165 3166 3168 3170 3170 3171
3088 3089 3086 3088 3091 3091 3094 3094 3096 3097 3098 3101 3097 3100 3105 3106 3108 3112 3116 3120 3122 3125 3126 3128 3130 3132 3134 3136 3138 3140 3142 3144 3146 3148 3150 3152 3154 3156 3158 3159 3161 3162 3164 3165 3166 3168 3169 3171 3171
3084 3085 3080 3083 3084 3082 3087 3090 3090 3088 3091 3093 3091 3095 3095 3097 3100 3104 3109 3113 3117 3119 3122 3124 3126 3128 3130 3133 3135 3137 3139 3142 3145 3147 3149 3150 3153 3155 3158 3159 3160 3161 3163 3165 3167 3168 3169 3170 3172
3079 3080 3077 3077 3079 3077 3079 3078 3082 3080 3078 3082 3084 3085 3092 3090 3093 3095 3102 3108 3111 3113 3116 3120 3121 3124 3126 3128 3131 3134 3136 3139 3142 3145 3147 3149 3151 3154 3156 3158 3160 3162 3163 3164 3166 3167 3170 3170 3172
3075 3077 3074 3075 3075 3073 3073 3072 3073 3070 3070 3073 3075 3075 3083 3086 3089 3089 3093 3100 3105 3108 3111 3115 3117 3119 3121 3123 3126 3129 3132 3135 3138 3142 3145 3148 3150 3152 3154 3156 3157 3159 3161 3163 3165 3166 3168 3170 3172
3072 3072 3071 3073 3070 3067 3066 3067 3065 3063 3060 3068 3072 3070 3074 3076 3080 3082 3085 3089 3097 3101 3106 3109 3112 3114 3116 3117 3122 3125 3129 3131 3135 3138 3142 3145 3147 3149 3151 3153 3156 3157 3159 3161 3164 3166 3167 3170 3173
3068 3068 3067 3066 3065 3062 3059 3054 3052 3052 3050 3059 3060 3063 3063 3067 3070 3074 3076 3078 3080 3085 3090 3099 3104 3107 3110 3113 3117 3121 3125 3129 3132 3135 3138 3142 3145 3147 3149 3151 3154 3156 3157 3160 3162 3164 3166 3168 3172
3061 3062 3061 3059 3058 3055 3049 3044 3041 3030 3044 3045 3048 3051 3050 3052 3058 3062 3066 3068 3073 3073 3082 3087 3094 3100 3103 3106 3111 3116 3119 3124 3128 3131 3134 3138 3141 3145 3146 3148 3150 3154 3156 3158 3160 3163 3165 3167 3170
3058 3057 3056 3055 3054 3047 3041 3032 3034 3025 3030 3035 3035 3037 3041 3039 3041 3047 3054 3058 3060 3066 3070 3078 3083 3090 3096 3099 3104 3111 3115 3119 3123 3127 3130 3134 3137 3141 3144 3145 3147 3150 3153 3156 3158 3161 3163 3165 3167
3053 3049 3048 3048 3046 3037 3031 3013 3014 3022 3022 3019 3020 3021 3023 3030 3030 3029 3034 3044 3050 3055 3059 3068 3075 3079 3085 3092 3097 3103 3110 3114 3118 3122 3126 3130 3133 3136 3140 3142 3145 3147 3150 3153 3155 3157 3160 3163 3164
3046 3042 3036 3038 3038 3034 3029 2999 3012 3014 3010 3008 3007 3005 3006 3009 3016 3016 3018 3024 3034 3038 3044 3048 3057 3067 3073 3082 3088 3094 3101 3108 3112 3116 3121 3124 3128 3132 3136 3138 3141 3143 3145 3148 3152 3154 3156 3160 3162
3041 3035 3032 3026 3029 3027 3024 2999 2999 3001 2998 2992 2992 2991 2989 2990 2995 3002 3001 3005 3014 3019 3029 3033 3038 3045 3058 3069 3078 3086 3093 3100 3106 3110 3114 3119 3122 3127 3131 3135 3138 3140 3142 3144 3147 3150 3153 3156 3159
3038 3031 3026 3022 3025 3023 3016 2987 2984 2990 2987 2977 2974 2974 2972 2972 2973 2982 2983 2987 2995 2998 3007 3015 3014 3016 3044 3057 3067 3075 3084 3090 3096 3102 3108 3113 3117 3121 3125 3129 3133 3135 3138 3140 3142 3146 3148 3151 3154
3032 3026 3020 3016 3019 3009 3003 2981 2974 2973 2970 2965 2962 2958 2953 2950 2957 2964 2967 2969 2977 2982 2985 3001 3011 3020 3018 3043 3051 3059 3067 3077 3085 3094 3101 3106 3111 3115 3120 3123 3128 3131 3134 3137 3139 3141 3144 3146 3149
3026 3020 3012 2999 3009 3007 2993 2964 2971 2964 2961 2958 2946 2934 2928 2929 2935 2944 2946 2951 2954 2964 2973 2983 2991 3003 3000 3026 3039 3049 3058 3069 3078 3088 3093 3098 3103 3109 3114 3118 3121 3127 3129 3130 3133 3136 3140 3142 3145
3020 3013 3008 3001 2998 2998 2985 2951 2952 2953 2949 2943 2930 2915 2910 2906 2908 2921 2926 2932 2939 2943 2951 2966 2982 2992 2997 3003 3020 3037 3053 3063 3067 3074 3081 3088 3097 3104 3109 3112 3115 3120 3125 3127 3130 3132 3136 3139 3142
3012 3012 3005 2999 2994 2988 2990 2962 2934 2942 2934 2928 2917 2900 2887 2882 2887 2896 2906 2916 2927 2931 2946 2954 2968 2978 2992 3002 3010 3027 3039 3042 3051 3062 3074 3083 3090 3096 3102 3106 3110 3114 3120 3122 3125 3128 3130 3132 3135
3005 3006 3001 2995 2989 2983 2970 2976 2944 2942 2924 2915 2902 2881 2874 2869 2872 2878 2889 2900 2915 2924 2933 2943 2950 2970 2985 2990 3002 3021 3030 3041 3046 3056 3067 3075 3083 3089 3096 3100 3104 3109 3113 3117 3119 3123 3125 3127 3129
3004 3000 2994 2984 2983 2978 2965 2968 2938 2934 2922 2902 2883 2871 2863 2861 2860 2867 2879 2890 2900 2914 2924 2934 2946 2956 2971 2978 2981 3010 3020 3030 3038 3047 3057 3066 3074 3082 3088 3093 3098 3104 3108 3112 3115 3117 3119 3121 3124
3002 2998 2989 2984 2981 2968 2962 2959 2938 2932 2921 2902 2867 2849 2852 2851 2855 2863 2870 2881 2890 2893 2910 2924 2935 2948 2963 2947 2980 3001 3014 3021 3034 3042 3051 3059 3066 3073 3082 3087 3092 3097 3102 3106 3109 3111 3113 3116 3117
2996 2996 2992 2979 2969 2954 2957 2948 2937 2930 2918 2901 2869 2855 2850 2850 2853 2862 2868 2878 2886 2895 2905 2923 2928 2945 2950 2949 2973 2993 3001 3015 3028 3039 3046 3053 3061 3070 3077 3082 3086 3092 3096 3100 3103 3105 3107 3110 3112
2995 2992 2989 2977 2967 2959 2945 2939 2933 2924 2910 2895 2876 2861 2854 2859 2860 2860 2867 2875 2882 2880 2897 2913 2924 2937 2947 2962 2968 2983 2995 3011 3022 3033 3041 3048 3056 3063 3070 3075 3080 3085 3089 3094 3096 3099 3101 3104 3106
2992 2988 2981 2975 2965 2955 2942 2936 2931 2919 2907 2894 2880 2864 2863 2861 2861 2865 2868 2871 2874 2884 2901 2917 2923 2935 2948 2954 2965 2979 2993 3002 3018 3026 3032 3040 3049 3055 3062 3068 3073 3078 3083 3087 3091 3094 3096 3099 3101
2982 2982 2982 2976 2970 2957 2945 2935 2930 2925 2918 2902 2892 2876 2867 2865 2863 2865 2869 2875 2886 2898 2911 2925 2927 2931 2943 2954 2956 2971 2986 2998 3010 3017 3025 3035 3043 3048 3054 3061 3066 3072 3076 3081 3084 3087 3090 3093 3095
2984 2983 2981 2979 2970 2966 2957 2934 2928 2926 2922 2914 2903 2890 2874 2880 2876 2874 2875 2882 2889 2897 2905 2908 2914 2922 2936 2945 2957 2974 2985 2992 3002 3009 3018 3028 3035 3042 3049 3054 3059 3064 3069 3074 3078 3081 3083 3086 3088